EW9082 Weather Reports


Display with metric or nautical units.
time (UTC)temp
F
wind
direction
speed
MPH
gust
MPH
rain 1hr
in
rain 24hr
in
rain mn
in
humidity
%
barometer
mb
20260505041525 50 150 0.0 2.0 0.00 0.00 0.00 89 1013.5
20260505040027 50 136 0.0 3.0 0.00 0.00 0.00 88 1013.5
20260505034509 50 178 0.0 2.0 0.00 0.00 0.00 88 1013.4
20260505033006 50 202 0.0 3.0 0.00 0.00 0.00 87 1013.3
20260505031604 51 103 0.0 2.0 0.00 0.00 0.00 85 1013.4
20260505030047 51 148 0.0 2.0 0.00 0.00 0.00 84 1013.5
20260505024535 51 96 0.0 7.0 0.00 0.00 0.00 83 1013.5
20260505023030 51 245 0.0 4.0 0.00 0.00 0.00 82 1013.5
20260505021520 52 174 1.0 6.0 0.00 0.00 0.00 82 1013.7
20260505020027 52 116 0.0 6.0 0.00 0.00 0.00 81 1013.6
20260505014523 52 180 2.0 6.0 0.00 0.00 0.00 81 1013.6
20260505013015 53 131 2.0 6.0 0.00 0.00 0.00 80 1013.4
20260505011523 53 157 1.0 5.0 0.00 0.00 0.00 78 1013.2
20260505010015 54 141 2.0 9.0 0.00 0.00 0.00 77 1012.8
20260505004531 54 173 3.0 8.0 0.00 0.00 0.00 76 1012.6
20260505003012 55 176 3.0 10.0 0.00 0.00 0.00 75 1012.4
20260505001501 55 137 4.0 10.0 0.00 0.00 0.00 73 1012.2
20260505000117 55 179 4.0 10.0 0.00 0.00 0.00 71 1012.0
20260504234559 56 72 3.0 9.0 0.00 0.00 0.00 69 1011.8
20260504233101 57 211 3.0 9.0 0.00 0.00 0.00 67 1011.7
20260504231558 57 178 2.0 10.0 0.00 0.00 0.00 64 1011.5
20260504230108 58 146 3.0 9.0 0.00 0.00 0.00 63 1011.3
20260504224558 58 77 1.0 9.0 0.00 0.00 0.00 62 1011.2
20260504223104 60 191 5.0 9.0 0.00 0.00 0.00 57 1011.0
20260504221550 61 194 2.0 10.0 0.00 0.00 0.00 55 1010.9
20260504220039 62 122 6.0 14.0 0.00 0.00 0.00 53 1010.8
20260504214520 63 205 4.0 9.0 0.00 0.00 0.00 52 1010.7
20260504213020 64 96 4.0 13.0 0.00 0.00 0.00 52 1010.6
20260504211502 65 163 5.0 14.0 0.00 0.00 0.00 51 1010.6
20260504210002 66 90 4.0 12.0 0.00 0.00 0.00 50 1010.5
20260504204549 66 123 4.0 14.0 0.00 0.00 0.00 49 1010.4
20260504203059 66 153 6.0 22.0 0.00 0.00 0.00 47 1010.4
20260504201549 67 181 5.0 24.0 0.00 0.00 0.00 45 1010.3
20260504200046 67 240 5.0 12.0 0.00 0.00 0.00 43 1010.3
20260504194548 67 92 3.0 13.0 0.00 0.00 0.00 44 1010.4
20260504193045 67 136 4.0 18.0 0.00 0.00 0.00 43 1010.4
20260504191643 68 172 6.0 20.0 0.00 0.00 0.00 40 1010.5
20260504190043 69 245 7.0 16.0 0.00 0.00 0.00 39 1010.4
20260504184541 68 134 5.0 17.0 0.00 0.00 0.00 39 1010.7
20260504183141 69 187 8.0 17.0 0.00 0.00 0.00 37 1010.7
20260504181527 70 191 4.0 14.0 0.00 0.00 0.00 35 1010.8
20260504180021 71 158 4.0 11.0 0.00 0.00 0.00 35 1010.8
20260504174504 70 220 6.0 14.0 0.00 0.00 0.00 33 1010.7
20260504173002 70 139 5.0 12.0 0.00 0.00 0.00 33 1010.8
20260504171545 70 146 3.0 10.0 0.00 0.00 0.00 34 1010.9
20260504160108 68 236 3.0 17.0 0.00 0.00 0.00 36 1011.7
20260504081524 42 32 0.0 1.0 0.00 0.00 0.00 75 1013.0
20260504044543 40 20 0.0 0.0 0.00 0.00 0.00 73 1012.9
20260504043049 40 20 0.0 0.0 0.00 0.00 0.00 73 1012.7